Location: Molalla
(45.1473°N, 122.5770°W)
Time: 19:03:46
(UTC-08:00)

SR - All Passes

Search period start: 17 November 2019 00:00
Search period end: 27 November 2019 00:00
Orbit: 574 x 882 km, 66.7° (Epoch: 17 November)

Date Brightness Start Highest point End Pass type
(mag) Time Alt. Az. Time Alt. Az. Time Alt. Az.
17 Nov - 01:13:47 10° NW 01:18:52 30° WSW 01:23:46 10° SSW night (unlit)
17 Nov - 14:04:16 10° SSE 14:08:12 22° ESE 14:12:21 10° ENE daylight
17 Nov - 15:44:27 10° SW 15:49:44 64° NW 15:55:29 10° NNE daylight
17 Nov - 17:29:28 10° WNW 17:33:05 17° NNW 17:36:49 10° N visible
17 Nov - 21:01:02 10° N 21:02:57 11° NNE 21:04:53 10° NE visible
17 Nov - 22:41:41 10° NNW 22:47:00 33° NE 22:52:14 10° ESE night (unlit)
18 Nov - 00:23:40 10° NW 00:29:27 55° WSW 00:35:01 10° SSE night (unlit)
18 Nov - 13:18:06 10° ESE 13:19:06 10° E 13:20:07 10° E daylight
18 Nov - 14:54:48 10° SSW 15:00:03 73° ESE 15:05:46 10° NE daylight
18 Nov - 16:38:17 10° W 16:42:48 25° NW 16:47:32 10° NNE daylight
18 Nov - 21:52:19 10° NNW 21:56:50 22° NE 22:01:18 10° E visible
18 Nov - 23:33:52 10° NNW 23:39:51 85° ENE 23:45:37 10° SSE night (unlit)
19 Nov - 01:17:33 10° WNW 01:21:12 17° WSW 01:24:46 10° SW night (unlit)
19 Nov - 14:05:44 10° S 14:10:35 39° ESE 14:15:49 10° NE daylight
19 Nov - 15:47:38 10° WSW 15:52:41 39° NW 15:58:08 10° NNE daylight
19 Nov - 17:34:05 10° NW 17:36:32 13° NNW 17:39:03 10° N visible
19 Nov - 21:03:06 10° N 21:06:28 15° NNE 21:09:50 10° ENE visible
19 Nov - 22:44:15 10° NNW 22:50:03 50° NE 22:55:40 10° SE night (unlit)
20 Nov - 00:26:49 10° NW 00:31:58 32° WSW 00:36:57 10° S night (unlit)
20 Nov - 13:17:29 10° SSE 13:21:19 21° ESE 13:25:21 10° ENE daylight
20 Nov - 14:57:29 10° SW 15:02:48 67° NW 15:08:35 10° NNE daylight
20 Nov - 16:42:21 10° WNW 16:46:05 18° NNW 16:49:57 10° N daylight
20 Nov - 20:14:13 10° N 20:15:57 11° NNE 20:17:41 10° NE visible
20 Nov - 21:54:47 10° NNW 22:00:03 31° NE 22:05:12 10° ESE visible
20 Nov - 23:36:44 10° NW 23:42:33 58° WSW 23:48:08 10° SSE night (unlit)
21 Nov - 14:07:52 10° SSW 14:13:07 69° ESE 14:18:51 10° NE daylight
21 Nov - 15:51:13 10° W 15:55:49 26° NW 16:00:40 10° NNE daylight
21 Nov - 21:05:26 10° NNW 21:09:52 21° NE 21:14:13 10° E visible
21 Nov - 22:46:57 10° NNW 22:52:56 81° ENE 22:58:41 10° SE night (unlit)
22 Nov - 00:30:29 10° WNW 00:34:19 18° WSW 00:38:03 10° SW night (unlit)
22 Nov - 13:18:51 10° S 13:23:40 37° ESE 13:28:51 10° NE daylight
22 Nov - 15:00:37 10° WSW 15:05:44 41° NW 15:11:14 10° NNE daylight
22 Nov - 16:46:54 10° NW 16:49:32 13° NNW 16:52:13 10° N daylight
22 Nov - 20:16:13 10° N 20:19:29 15° NNE 20:22:43 10° ENE visible
22 Nov - 21:57:21 10° NNW 22:03:06 48° NE 22:08:41 10° SE visible
22 Nov - 23:39:51 10° NW 23:45:05 33° WSW 23:50:06 10° S night (unlit)
23 Nov - 12:30:42 10° SSE 12:34:26 19° ESE 12:38:20 10° ENE daylight
23 Nov - 14:10:30 10° SW 14:15:52 71° NW 14:21:40 10° NNE daylight
23 Nov - 15:55:15 10° WNW 15:59:06 18° NNW 16:03:06 10° N daylight
23 Nov - 19:27:23 10° N 19:28:57 11° NNE 19:30:28 10° NE visible
23 Nov - 21:07:53 10° NNW 21:13:05 30° NE 21:18:10 10° ESE visible
23 Nov - 22:49:47 10° NW 22:55:39 61° WSW 23:01:14 10° SSE night (unlit)
24 Nov - 13:20:56 10° SSW 13:26:12 65° ESE 13:31:56 10° NE daylight
24 Nov - 15:04:09 10° W 15:08:51 27° NW 15:13:47 10° NNE daylight
24 Nov - 16:52:25 10° NNW 16:53:06 10° NNW 16:53:47 10° N daylight
24 Nov - 20:18:32 10° NNW 20:22:53 20° NE 20:27:09 10° E visible
24 Nov - 22:00:01 10° NNW 22:06:00 78° NE 22:11:44 10° SE visible
24 Nov - 23:43:27 10° WNW 23:47:26 19° WSW 23:51:18 10° SSW night (unlit)
25 Nov - 12:31:59 10° S 12:36:46 35° ESE 12:41:54 10° NE daylight
25 Nov - 14:13:35 10° WSW 14:18:47 43° NW 14:24:20 10° NNE daylight
25 Nov - 15:59:44 10° NW 16:02:32 14° NNW 16:05:23 10° N daylight
25 Nov - 19:29:21 10° N 19:32:28 14° NNE 19:35:35 10° ENE visible
25 Nov - 21:10:26 10° NNW 21:16:10 46° NE 21:21:41 10° ESE visible
25 Nov - 22:52:53 10° NW 22:58:11 35° WSW 23:03:15 10° S night (unlit)
26 Nov - 11:43:56 10° SSE 11:47:32 18° ESE 11:51:19 10° ENE daylight
26 Nov - 13:23:32 10° SW 13:28:55 75° NW 13:34:46 10° NNE daylight
26 Nov - 15:08:08 10° WNW 15:12:06 19° NNW 15:16:13 10° N daylight
26 Nov - 18:40:37 10° N 18:41:55 11° NNE 18:43:14 10° NNE visible
26 Nov - 20:20:59 10° NNW 20:26:08 29° NE 20:31:08 10° ESE visible
26 Nov - 22:02:51 10° NW 22:08:44 64° WSW 22:14:19 10° SSE visible
